Time,TemperatureF,DewpointF,PressureIn,WindDirection,WindDirectionDegrees,WindSpeedMPH,WindSpeedGustMPH,Humidity,HourlyPrecipIn,Conditions,Clouds,dailyrainin,SoftwareType,DateUTC
2013-05-23 00:01:00,79.0,71.6,29.91,ESE,121,0.0,0.0,78,0.00,,OVC042,0.00,VWS V14.01,2013-05-23 05:01:00,
2013-05-23 00:06:00,78.8,71.7,29.91,ESE,121,0.0,0.0,79,0.00,,OVC042,0.00,VWS V14.01,2013-05-23 05:06:00,
2013-05-23 00:11:00,78.6,71.6,29.91,ESE,121,0.0,0.0,79,0.00,,OVC042,0.00,VWS V14.01,2013-05-23 05:11:00,
2013-05-23 00:16:00,78.5,71.4,29.91,ESE,121,0.0,0.0,79,0.00,,OVC042,0.00,VWS V14.01,2013-05-23 05:16:00,
2013-05-23 00:21:00,78.3,71.3,29.91,ESE,121,0.0,0.0,79,0.00,,OVC042,0.00,VWS V14.01,2013-05-23 05:21:00,
2013-05-23 00:26:00,78.3,71.6,29.91,ESE,121,0.0,0.0,80,0.00,,OVC042,0.00,VWS V14.01,2013-05-23 05:26:00,
2013-05-23 00:31:00,78.1,71.4,29.91,ESE,121,0.0,0.0,80,0.00,,OVC042,0.00,VWS V14.01,2013-05-23 05:31:00,
2013-05-23 00:36:00,77.9,71.6,29.91,ESE,121,0.0,0.0,81,0.00,,OVC042,0.00,VWS V14.01,2013-05-23 05:36:00,
2013-05-23 00:41:00,77.7,71.4,29.91,SE,126,0.0,1.0,81,0.00,,OVC042,0.00,VWS V14.01,2013-05-23 05:41:00,
2013-05-23 00:46:00,77.6,71.3,29.91,SE,126,0.0,0.0,81,0.00,,OVC042,0.00,VWS V14.01,2013-05-23 05:46:00,
2013-05-23 00:51:00,77.4,71.5,29.92,SE,126,0.0,0.0,82,0.00,,OVC042,0.00,VWS V14.01,2013-05-23 05:51:00,
2013-05-23 00:56:00,77.4,71.5,29.92,SE,126,0.0,0.0,82,0.00,,,0.00,VWS V14.01,2013-05-23 05:56:00,
2013-05-23 01:01:00,77.2,71.3,29.92,SE,126,0.0,0.0,82,0.00,,,0.00,VWS V14.01,2013-05-23 06:01:00,
2013-05-23 01:06:00,77.0,71.4,29.92,SE,126,0.0,0.0,83,0.00,,,0.00,VWS V14.01,2013-05-23 06:06:00,
2013-05-23 01:11:00,77.0,71.4,29.92,SE,126,0.0,0.0,83,0.00,,,0.00,VWS V14.01,2013-05-23 06:11:00,
2013-05-23 01:16:00,76.8,71.2,29.92,SE,126,0.0,1.0,83,0.00,,,0.00,VWS V14.01,2013-05-23 06:16:00,
2013-05-23 01:21:00,76.7,71.2,29.92,ESE,123,0.0,1.0,83,0.00,,,0.00,VWS V14.01,2013-05-23 06:21:00,
2013-05-23 01:26:00,76.5,71.3,29.92,ESE,112,0.0,3.0,84,0.00,,,0.00,VWS V14.01,2013-05-23 06:26:00,
2013-05-23 01:31:00,76.3,71.1,29.92,SE,143,0.0,4.0,84,0.00,,,0.00,VWS V14.01,2013-05-23 06:31:00,
2013-05-23 01:36:00,76.1,70.9,29.91,SE,143,0.0,0.0,84,0.00,,,0.00,VWS V14.01,2013-05-23 06:36:00,
2013-05-23 01:41:00,76.0,71.2,29.91,SE,143,0.0,0.0,85,0.00,,,0.00,VWS V14.01,2013-05-23 06:41:00,
2013-05-23 01:46:00,76.0,71.2,29.91,SE,143,0.0,0.0,85,0.00,,,0.00,VWS V14.01,2013-05-23 06:46:00,
2013-05-23 01:51:00,75.8,71.0,29.91,ESE,118,0.0,1.0,85,0.00,,,0.00,VWS V14.01,2013-05-23 06:51:00,
2013-05-23 01:56:00,75.8,71.3,29.91,ESE,117,0.0,3.0,86,0.00,,,0.00,VWS V14.01,2013-05-23 06:56:00,
2013-05-23 02:01:00,75.6,71.1,29.91,ESE,103,0.0,9.0,86,0.00,,,0.00,VWS V14.01,2013-05-23 07:01:00,
2013-05-23 02:06:00,75.6,71.1,29.91,ESE,111,0.0,6.0,86,0.00,,,0.00,VWS V14.01,2013-05-23 07:06:00,
2013-05-23 02:11:00,75.4,71.3,29.91,SE,146,0.0,6.0,87,0.00,,,0.00,VWS V14.01,2013-05-23 07:11:00,
2013-05-23 02:16:00,75.4,71.3,29.91,SE,126,0.0,0.0,87,0.00,,,0.00,VWS V14.01,2013-05-23 07:16:00,
2013-05-23 02:21:00,75.3,71.2,29.91,SE,126,0.0,0.0,87,0.00,,,0.00,VWS V14.01,2013-05-23 07:21:00,
2013-05-23 02:26:00,75.3,71.2,29.91,SE,126,0.0,0.0,87,0.00,,,0.00,VWS V14.01,2013-05-23 07:26:00,
2013-05-23 02:31:00,75.3,71.2,29.91,SE,127,0.0,1.0,87,0.00,,,0.00,VWS V14.01,2013-05-23 07:31:00,
2013-05-23 02:36:00,75.1,71.0,29.91,SE,124,0.0,0.0,87,0.00,,,0.00,VWS V14.01,2013-05-23 07:36:00,
2013-05-23 02:41:00,75.1,71.3,29.91,ESE,113,0.0,0.0,88,0.00,,,0.00,VWS V14.01,2013-05-23 07:41:00,
2013-05-23 02:46:00,75.1,71.3,29.91,SE,134,0.0,4.0,88,0.00,,,0.00,VWS V14.01,2013-05-23 07:46:00,
2013-05-23 02:51:00,75.1,71.3,29.91,ESE,123,1.0,7.0,88,0.00,,,0.00,VWS V14.01,2013-05-23 07:51:00,
2013-05-23 02:56:00,75.1,71.3,29.91,SE,138,2.0,7.0,88,0.00,,,0.00,VWS V14.01,2013-05-23 07:56:00,
2013-05-23 03:01:00,75.1,71.3,29.91,South,178,2.0,8.0,88,0.00,,,0.00,VWS V14.01,2013-05-23 08:01:00,
2013-05-23 03:06:00,75.1,71.3,29.90,East,97,0.0,8.0,88,0.00,,,0.00,VWS V14.01,2013-05-23 08:06:00,
2013-05-23 03:11:00,75.1,71.3,29.90,SSE,151,0.0,8.0,88,0.00,,,0.00,VWS V14.01,2013-05-23 08:11:00,
2013-05-23 03:16:00,75.3,71.2,29.90,SE,142,5.0,5.0,87,0.00,,,0.00,VWS V14.01,2013-05-23 08:16:00,
2013-05-23 03:21:00,75.3,71.2,29.90,SE,146,1.0,5.0,87,0.00,,,0.00,VWS V14.01,2013-05-23 08:21:00,
2013-05-23 03:26:00,75.3,71.2,29.90,SSE,159,1.0,7.0,87,0.00,,,0.00,VWS V14.01,2013-05-23 08:26:00,
2013-05-23 03:31:00,75.3,71.2,29.90,SE,136,3.0,7.0,87,0.00,,,0.00,VWS V14.01,2013-05-23 08:31:00,
2013-05-23 03:36:00,75.4,70.9,29.90,SSE,147,0.0,5.0,86,0.00,,,0.00,VWS V14.01,2013-05-23 08:36:00,
2013-05-23 03:41:00,75.4,70.9,29.90,SSE,157,0.0,5.0,86,0.00,,,0.00,VWS V14.01,2013-05-23 08:41:00,
2013-05-23 03:46:00,75.3,70.8,29.90,ESE,121,0.0,3.0,86,0.00,,,0.00,VWS V14.01,2013-05-23 08:46:00,
2013-05-23 03:51:00,75.3,70.8,29.89,SE,125,0.0,3.0,86,0.00,,,0.00,VWS V14.01,2013-05-23 08:51:00,
2013-05-23 03:56:00,75.3,70.8,29.89,SE,124,0.0,0.0,86,0.00,,,0.00,VWS V14.01,2013-05-23 08:56:00,
2013-05-23 04:01:00,75.3,71.2,29.89,ESE,123,0.0,3.0,87,0.00,,,0.00,VWS V14.01,2013-05-23 09:01:00,
2013-05-23 04:06:00,75.3,71.2,29.90,ESE,123,0.0,0.0,87,0.00,,,0.00,VWS V14.01,2013-05-23 09:06:00,
2013-05-23 04:11:00,75.3,71.2,29.90,SE,134,0.0,2.0,87,0.00,,,0.00,VWS V14.01,2013-05-23 09:11:00,
2013-05-23 04:16:00,75.3,71.2,29.90,ESE,116,2.0,3.0,87,0.00,,,0.00,VWS V14.01,2013-05-23 09:16:00,
2013-05-23 04:21:00,75.3,71.2,29.90,ESE,111,0.0,3.0,87,0.00,,,0.00,VWS V14.01,2013-05-23 09:21:00,
2013-05-23 04:26:00,75.1,71.0,29.90,SE,144,0.0,6.0,87,0.00,,,0.00,VWS V14.01,2013-05-23 09:26:00,
2013-05-23 04:31:00,75.1,70.6,29.90,ESE,117,0.0,6.0,86,0.00,,,0.00,VWS V14.01,2013-05-23 09:31:00,
2013-05-23 04:36:00,75.3,70.8,29.90,ESE,102,4.0,5.0,86,0.00,,,0.00,VWS V14.01,2013-05-23 09:36:00,
2013-05-23 04:41:00,75.3,70.8,29.90,SE,142,0.0,5.0,86,0.00,,,0.00,VWS V14.01,2013-05-23 09:41:00,
2013-05-23 04:46:00,75.3,70.8,29.90,ESE,107,0.0,6.0,86,0.00,,,0.00,VWS V14.01,2013-05-23 09:46:00,
2013-05-23 04:51:00,75.3,70.5,29.90,SE,138,0.0,6.0,85,0.00,,,0.00,VWS V14.01,2013-05-23 09:51:00,
2013-05-23 04:56:00,75.3,70.5,29.90,SE,139,0.0,9.0,85,0.00,,OVC012,0.00,VWS V14.01,2013-05-23 09:56:00,
2013-05-23 05:01:00,75.4,70.6,29.90,SE,130,0.0,9.0,85,0.00,,OVC012,0.00,VWS V14.01,2013-05-23 10:01:00,
2013-05-23 05:06:00,75.4,70.6,29.90,ESE,111,0.0,1.0,85,0.00,,OVC012,0.00,VWS V14.01,2013-05-23 10:06:00,
2013-05-23 05:11:00,75.6,70.4,29.90,ESE,110,0.0,1.0,84,0.00,,OVC012,0.00,VWS V14.01,2013-05-23 10:11:00,
2013-05-23 05:16:00,75.6,70.4,29.90,ESE,110,0.0,0.0,84,0.00,,OVC012,0.00,VWS V14.01,2013-05-23 10:16:00,
2013-05-23 05:21:00,75.6,70.4,29.90,ESE,111,0.0,0.0,84,0.00,,OVC012,0.00,VWS V14.01,2013-05-23 10:21:00,
2013-05-23 05:26:00,75.6,70.4,29.90,ESE,113,0.0,0.0,84,0.00,,OVC012,0.00,VWS V14.01,2013-05-23 10:26:00,
2013-05-23 05:31:00,75.6,70.4,29.90,SE,127,0.0,1.0,84,0.00,,OVC012,0.00,VWS V14.01,2013-05-23 10:31:00,
2013-05-23 05:36:00,75.6,70.8,29.90,ESE,113,0.0,0.0,85,0.00,,OVC012,0.00,VWS V14.01,2013-05-23 10:36:00,
2013-05-23 05:41:00,75.6,70.8,29.90,ESE,109,0.0,2.0,85,0.00,,OVC012,0.00,VWS V14.01,2013-05-23 10:41:00,
2013-05-23 05:46:00,75.6,70.8,29.90,ESE,109,0.0,0.0,85,0.00,,OVC012,0.00,VWS V14.01,2013-05-23 10:46:00,
2013-05-23 05:51:00,75.6,70.8,29.91,ESE,109,0.0,0.0,85,0.00,,OVC012,0.00,VWS V14.01,2013-05-23 10:51:00,
2013-05-23 05:56:00,75.6,70.8,29.91,East,100,0.0,0.0,85,0.00,,OVC014,0.00,VWS V14.01,2013-05-23 10:56:00,
2013-05-23 06:01:00,75.6,70.8,29.91,ESE,107,0.0,0.0,85,0.00,,OVC014,0.00,VWS V14.01,2013-05-23 11:01:00,
2013-05-23 06:06:00,75.6,71.1,29.91,ESE,107,0.0,0.0,86,0.00,,OVC014,0.00,VWS V14.01,2013-05-23 11:06:00,
2013-05-23 06:11:00,75.6,71.1,29.91,ESE,107,0.0,0.0,86,0.00,,OVC014,0.00,VWS V14.01,2013-05-23 11:11:00,
2013-05-23 06:16:00,75.6,71.1,29.91,ESE,107,0.0,0.0,86,0.00,,OVC014,0.00,VWS V14.01,2013-05-23 11:16:00,
2013-05-23 06:21:00,75.8,71.3,29.92,ESE,107,0.0,0.0,86,0.00,,OVC014,0.00,VWS V14.01,2013-05-23 11:21:00,
2013-05-23 06:26:00,75.6,71.1,29.92,ESE,107,0.0,0.0,86,0.00,,OVC014,0.00,VWS V14.01,2013-05-23 11:26:00,
2013-05-23 06:31:00,75.8,71.3,29.92,ESE,107,0.0,0.0,86,0.00,,OVC016,0.00,VWS V14.01,2013-05-23 11:31:00,
2013-05-23 06:36:00,75.8,71.3,29.93,ESE,109,0.0,0.0,86,0.00,,OVC016,0.00,VWS V14.01,2013-05-23 11:36:00,
2013-05-23 06:41:00,75.8,71.3,29.93,ESE,109,0.0,0.0,86,0.00,,OVC016,0.00,VWS V14.01,2013-05-23 11:41:00,
2013-05-23 06:46:00,75.8,71.3,29.93,ESE,109,0.0,0.0,86,0.00,,OVC016,0.00,VWS V14.01,2013-05-23 11:46:00,
2013-05-23 06:51:00,75.8,71.3,29.94,SSE,156,0.0,2.0,86,0.00,,OVC016,0.00,VWS V14.01,2013-05-23 11:51:00,
2013-05-23 06:56:00,75.8,71.3,29.94,SSE,167,3.0,3.0,86,0.00,,OVC016,0.00,VWS V14.01,2013-05-23 11:56:00,
2013-05-23 07:01:00,75.8,71.0,29.94,SE,125,0.0,4.0,85,0.00,,OVC016,0.00,VWS V14.01,2013-05-23 12:01:00,
2013-05-23 07:06:00,76.0,71.2,29.94,ESE,120,0.0,0.0,85,0.00,,OVC016,0.00,VWS V14.01,2013-05-23 12:06:00,
2013-05-23 07:11:00,76.0,71.2,29.94,SE,138,0.0,0.0,85,0.00,,OVC016,0.00,VWS V14.01,2013-05-23 12:11:00,
2013-05-23 07:16:00,76.0,71.2,29.94,SE,138,0.0,0.0,85,0.00,,OVC016,0.00,VWS V14.01,2013-05-23 12:16:00,
2013-05-23 07:21:00,76.0,71.2,29.95,SE,126,0.0,0.0,85,0.00,,OVC016,0.00,VWS V14.01,2013-05-23 12:21:00,
2013-05-23 07:26:00,76.0,71.2,29.95,SE,126,0.0,0.0,85,0.00,,OVC016,0.00,VWS V14.01,2013-05-23 12:26:00,
2013-05-23 07:31:00,76.1,71.3,29.95,SE,126,0.0,0.0,85,0.00,,OVC016,0.00,VWS V14.01,2013-05-23 12:31:00,
2013-05-23 07:36:00,76.1,71.3,29.95,SE,126,0.0,0.0,85,0.00,,OVC016,0.00,VWS V14.01,2013-05-23 12:36:00,
2013-05-23 07:41:00,76.1,71.3,29.95,SE,127,0.0,0.0,85,0.00,,OVC016,0.00,VWS V14.01,2013-05-23 12:41:00,
2013-05-23 07:46:00,76.3,71.5,29.95,ESE,107,0.0,1.0,85,0.00,,OVC016,0.00,VWS V14.01,2013-05-23 12:46:00,
2013-05-23 07:51:00,76.3,71.5,29.96,ESE,115,0.0,4.0,85,0.00,,OVC016,0.00,VWS V14.01,2013-05-23 12:51:00,
2013-05-23 07:56:00,76.3,71.5,29.96,SE,138,0.0,0.0,85,0.00,,,0.00,VWS V14.01,2013-05-23 12:56:00,
2013-05-23 08:01:00,76.3,71.5,29.96,East,85,0.0,3.0,85,0.00,,,0.00,VWS V14.01,2013-05-23 13:01:00,
2013-05-23 08:06:00,76.5,71.7,29.97,ESE,115,0.0,2.0,85,0.00,,,0.00,VWS V14.01,2013-05-23 13:06:00,
2013-05-23 08:11:00,76.7,72.2,29.97,ESE,115,0.0,2.0,86,0.00,,,0.00,VWS V14.01,2013-05-23 13:11:00,
2013-05-23 08:16:00,76.8,71.9,29.97,ESE,115,0.0,0.0,85,0.00,,,0.00,VWS V14.01,2013-05-23 13:16:00,
2013-05-23 08:21:00,76.7,71.9,29.97,ESE,115,0.0,0.0,85,0.00,,,0.00,VWS V14.01,2013-05-23 13:21:00,
2013-05-23 08:26:00,76.8,71.9,29.97,ESE,115,0.0,0.0,85,0.00,,,0.00,VWS V14.01,2013-05-23 13:26:00,
2013-05-23 08:31:00,76.8,71.9,29.97,ESE,115,0.0,0.0,85,0.00,,,0.00,VWS V14.01,2013-05-23 13:31:00,
2013-05-23 08:36:00,77.0,71.8,29.98,ESE,109,0.0,2.0,84,0.00,,,0.00,VWS V14.01,2013-05-23 13:36:00,
2013-05-23 08:41:00,77.2,72.0,29.98,ESE,121,0.0,2.0,84,0.00,,,0.00,VWS V14.01,2013-05-23 13:41:00,
2013-05-23 08:46:00,77.2,71.6,29.98,SSE,151,0.0,3.0,83,0.00,,,0.00,VWS V14.01,2013-05-23 13:46:00,
2013-05-23 08:51:00,77.4,71.8,29.98,SSE,150,0.0,3.0,83,0.00,,,0.00,VWS V14.01,2013-05-23 13:51:00,
2013-05-23 08:56:00,77.4,71.8,29.98,SSE,150,0.0,0.0,83,0.00,,,0.00,VWS V14.01,2013-05-23 13:56:00,
2013-05-23 09:01:00,77.6,72.0,29.98,ESE,112,0.0,0.0,83,0.00,,,0.00,VWS V14.01,2013-05-23 14:01:00,
2013-05-23 09:06:00,77.7,71.8,29.98,SSE,165,0.0,0.0,82,0.00,,,0.00,VWS V14.01,2013-05-23 14:06:00,
2013-05-23 09:11:00,78.1,72.2,29.98,East,101,0.0,0.0,82,0.00,,,0.00,VWS V14.01,2013-05-23 14:11:00,
2013-05-23 09:16:00,78.1,71.8,29.98,ESE,102,0.0,0.0,81,0.00,,,0.00,VWS V14.01,2013-05-23 14:16:00,
2013-05-23 09:21:00,78.3,71.6,29.99,SE,130,0.0,6.0,80,0.00,,,0.00,VWS V14.01,2013-05-23 14:21:00,
2013-05-23 09:26:00,78.5,71.4,29.99,ESE,123,0.0,6.0,79,0.00,,,0.00,VWS V14.01,2013-05-23 14:26:00,
2013-05-23 09:31:00,78.8,71.7,29.99,SE,146,0.0,6.0,79,0.00,,,0.00,VWS V14.01,2013-05-23 14:31:00,
2013-05-23 09:36:00,79.0,71.6,29.99,SSE,159,0.0,6.0,78,0.00,,,0.00,VWS V14.01,2013-05-23 14:36:00,
2013-05-23 09:41:00,79.4,71.9,29.99,ESE,116,0.0,6.0,78,0.00,,,0.00,VWS V14.01,2013-05-23 14:41:00,
2013-05-23 09:46:00,79.8,71.9,29.99,SE,127,1.0,6.0,77,0.00,,,0.00,VWS V14.01,2013-05-23 14:46:00,
2013-05-23 09:51:00,79.8,71.6,29.99,SSE,162,5.0,11.0,76,0.00,,,0.00,VWS V14.01,2013-05-23 14:51:00,
2013-05-23 09:56:00,79.8,71.6,29.99,SE,140,0.0,6.0,76,0.00,,OVC025,0.00,VWS V14.01,2013-05-23 14:56:00,
2013-05-23 10:01:00,79.9,71.7,29.99,SE,136,4.0,6.0,76,0.00,,OVC025,0.00,VWS V14.01,2013-05-23 15:01:00,
2013-05-23 10:06:00,80.1,71.9,30.00,SSE,150,4.0,8.0,76,0.00,,OVC025,0.00,VWS V14.01,2013-05-23 15:06:00,
2013-05-23 10:11:00,80.3,71.7,30.00,ESE,108,0.0,8.0,75,0.00,,OVC025,0.00,VWS V14.01,2013-05-23 15:11:00,
2013-05-23 10:16:00,80.3,70.9,30.00,SE,141,2.0,10.0,73,0.00,,OVC025,0.00,VWS V14.01,2013-05-23 15:16:00,
2013-05-23 10:21:00,80.7,71.7,30.00,ESE,105,0.0,11.0,74,0.00,,OVC025,0.00,VWS V14.01,2013-05-23 15:21:00,
2013-05-23 10:26:00,80.9,71.4,30.00,SSE,153,0.0,9.0,73,0.00,,OVC025,0.00,VWS V14.01,2013-05-23 15:26:00,
2013-05-23 10:31:00,81.2,71.7,30.00,SE,126,0.0,9.0,73,0.00,,OVC025,0.00,VWS V14.01,2013-05-23 15:31:00,
2013-05-23 10:36:00,81.6,71.3,30.00,ESE,105,6.0,6.0,71,0.00,,OVC025,0.00,VWS V14.01,2013-05-23 15:36:00,
2013-05-23 10:41:00,81.4,71.1,30.00,SE,130,0.0,12.0,71,0.00,,OVC025,0.00,VWS V14.01,2013-05-23 15:41:00,
2013-05-23 10:46:00,81.2,70.9,30.00,SE,143,0.0,5.0,71,0.00,,OVC025,0.00,VWS V14.01,2013-05-23 15:46:00,
2013-05-23 10:51:00,80.7,70.8,29.99,South,180,5.0,14.0,72,0.00,,OVC025,0.00,VWS V14.01,2013-05-23 15:51:00,
2013-05-23 10:56:00,80.7,71.2,29.99,SSE,148,0.0,6.0,73,0.00,,OVC029,0.00,VWS V14.01,2013-05-23 15:56:00,
2013-05-23 11:01:00,80.7,71.7,29.99,SSE,159,1.0,6.0,74,0.00,,OVC029,0.00,VWS V14.01,2013-05-23 16:01:00,
2013-05-23 11:06:00,80.5,71.5,30.00,SSE,165,5.0,5.0,74,0.00,,OVC029,0.00,VWS V14.01,2013-05-23 16:06:00,
2013-05-23 11:11:00,80.9,71.0,30.00,SE,141,0.0,5.0,72,0.00,,OVC029,0.00,VWS V14.01,2013-05-23 16:11:00,
2013-05-23 11:16:00,80.9,71.0,30.00,ESE,113,3.0,7.0,72,0.00,,OVC029,0.00,VWS V14.01,2013-05-23 16:16:00,
2013-05-23 11:21:00,81.2,70.9,30.00,SE,146,7.0,7.0,71,0.00,,OVC031,0.00,VWS V14.01,2013-05-23 16:21:00,
2013-05-23 11:26:00,81.8,71.1,30.00,SSE,150,0.0,3.0,70,0.00,,OVC031,0.00,VWS V14.01,2013-05-23 16:26:00,
2013-05-23 11:31:00,82.4,71.2,30.00,ESE,120,0.0,7.0,69,0.00,,OVC031,0.00,VWS V14.01,2013-05-23 16:31:00,
2013-05-23 11:36:00,83.0,70.9,29.99,ESE,115,4.0,6.0,67,0.00,,OVC031,0.00,VWS V14.01,2013-05-23 16:36:00,
2013-05-23 11:41:00,83.2,70.2,29.99,SSE,155,6.0,10.0,65,0.00,,OVC031,0.00,VWS V14.01,2013-05-23 16:41:00,
2013-05-23 11:46:00,83.4,69.9,29.99,SSE,155,0.0,10.0,64,0.00,,OVC031,0.00,VWS V14.01,2013-05-23 16:46:00,
2013-05-23 11:51:00,83.4,70.4,29.99,ESE,107,0.0,15.0,65,0.00,,OVC031,0.00,VWS V14.01,2013-05-23 16:51:00,
2013-05-23 11:56:00,83.2,70.2,29.99,SE,134,4.0,12.0,65,0.00,,OVC031,0.00,VWS V14.01,2013-05-23 16:56:00,
2013-05-23 12:01:00,83.6,70.6,29.99,SE,130,0.0,12.0,65,0.00,,OVC031,0.00,VWS V14.01,2013-05-23 17:01:00,
2013-05-23 12:06:00,84.0,70.5,30.00,ESE,114,0.0,7.0,64,0.00,,OVC031,0.00,VWS V14.01,2013-05-23 17:06:00,
2013-05-23 12:11:00,84.0,70.1,30.00,SSE,149,0.0,7.0,63,0.00,,OVC031,0.00,VWS V14.01,2013-05-23 17:11:00,
2013-05-23 12:16:00,84.0,70.1,30.00,SSW,195,4.0,7.0,63,0.00,,OVC031,0.00,VWS V14.01,2013-05-23 17:16:00,
2013-05-23 12:21:00,84.0,69.6,30.00,SSE,158,9.0,11.0,62,0.00,,OVC031,0.00,VWS V14.01,2013-05-23 17:21:00,
2013-05-23 12:26:00,84.1,69.7,30.00,SE,136,2.0,10.0,62,0.00,,OVC031,0.00,VWS V14.01,2013-05-23 17:26:00,
2013-05-23 12:31:00,84.3,69.9,30.00,SSE,157,0.0,10.0,62,0.00,,OVC031,0.00,VWS V14.01,2013-05-23 17:31:00,
2013-05-23 12:36:00,84.5,70.1,29.99,SE,143,5.0,6.0,62,0.00,,OVC031,0.00,VWS V14.01,2013-05-23 17:36:00,
2013-05-23 12:41:00,84.7,69.8,29.99,SSE,166,3.0,6.0,61,0.00,,OVC031,0.00,VWS V14.01,2013-05-23 17:41:00,
2013-05-23 12:46:00,85.1,69.7,29.99,South,189,2.0,10.0,60,0.00,,OVC031,0.00,VWS V14.01,2013-05-23 17:46:00,
2013-05-23 12:51:00,85.1,69.7,29.99,South,174,0.0,11.0,60,0.00,,OVC031,0.00,VWS V14.01,2013-05-23 17:51:00,
2013-05-23 12:56:00,85.3,69.4,29.99,SSW,199,3.0,6.0,59,0.00,,OVC035,0.00,VWS V14.01,2013-05-23 17:56:00,
2013-05-23 13:01:00,85.5,69.6,29.99,ESE,123,0.0,11.0,59,0.00,,OVC035,0.00,VWS V14.01,2013-05-23 18:01:00,
2013-05-23 13:06:00,85.9,69.4,29.99,East,92,6.0,6.0,58,0.00,,OVC035,0.00,VWS V14.01,2013-05-23 18:06:00,
2013-05-23 13:11:00,86.1,69.6,29.99,SSE,159,0.0,9.0,58,0.00,,OVC035,0.00,VWS V14.01,2013-05-23 18:11:00,
2013-05-23 13:16:00,86.1,69.6,29.99,SSW,211,3.0,8.0,58,0.00,,OVC035,0.00,VWS V14.01,2013-05-23 18:16:00,
2013-05-23 13:21:00,86.3,69.3,29.98,South,171,0.0,8.0,57,0.00,,OVC035,0.00,VWS V14.01,2013-05-23 18:21:00,
2013-05-23 13:26:00,86.3,69.3,29.98,SSE,156,5.0,7.0,57,0.00,,OVC035,0.00,VWS V14.01,2013-05-23 18:26:00,
2013-05-23 13:31:00,86.3,69.8,29.98,SE,132,0.0,12.0,58,0.00,,OVC035,0.00,VWS V14.01,2013-05-23 18:31:00,
2013-05-23 13:36:00,86.5,69.5,29.98,SSW,194,2.0,13.0,57,0.00,,OVC035,0.00,VWS V14.01,2013-05-23 18:36:00,
2013-05-23 13:41:00,87.2,69.1,29.98,SSW,194,5.0,13.0,55,0.00,,OVC035,0.00,VWS V14.01,2013-05-23 18:41:00,
2013-05-23 13:46:00,87.4,69.3,29.98,SSE,159,2.0,7.0,55,0.00,,OVC035,0.00,VWS V14.01,2013-05-23 18:46:00,
2013-05-23 13:51:00,87.4,69.3,29.98,ESE,115,0.0,7.0,55,0.00,,OVC035,0.00,VWS V14.01,2013-05-23 18:51:00,
2013-05-23 13:56:00,87.4,69.8,29.98,ESE,109,2.0,11.0,56,0.00,,OVC044,0.00,VWS V14.01,2013-05-23 18:56:00,
2013-05-23 14:01:00,87.8,69.6,29.98,ESE,113,0.0,11.0,55,0.00,,OVC044,0.00,VWS V14.01,2013-05-23 19:01:00,
2013-05-23 14:06:00,88.0,68.7,29.98,SSW,196,7.0,12.0,53,0.00,,OVC044,0.00,VWS V14.01,2013-05-23 19:06:00,
2013-05-23 14:11:00,88.6,69.3,29.98,ESE,117,3.0,12.0,53,0.00,,OVC044,0.00,VWS V14.01,2013-05-23 19:11:00,
2013-05-23 14:16:00,89.3,68.8,29.98,South,189,3.0,4.0,51,0.00,,OVC044,0.00,VWS V14.01,2013-05-23 19:16:00,
2013-05-23 14:21:00,89.5,69.0,29.98,SE,127,6.0,9.0,51,0.00,,OVC044,0.00,VWS V14.01,2013-05-23 19:21:00,
2013-05-23 14:26:00,89.3,68.8,29.98,SSE,149,2.0,11.0,51,0.00,,OVC044,0.00,VWS V14.01,2013-05-23 19:26:00,
2013-05-23 14:31:00,89.9,69.4,29.98,ESE,119,4.0,11.0,51,0.00,,OVC044,0.00,VWS V14.01,2013-05-23 19:31:00,
2013-05-23 14:36:00,90.1,69.6,29.97,SE,134,5.0,13.0,51,0.00,,OVC044,0.00,VWS V14.01,2013-05-23 19:36:00,
2013-05-23 14:41:00,90.3,68.6,29.97,SE,128,0.0,13.0,49,0.00,,OVC044,0.00,VWS V14.01,2013-05-23 19:41:00,
2013-05-23 14:46:00,90.5,68.8,29.97,SSE,150,5.0,10.0,49,0.00,,OVC044,0.00,VWS V14.01,2013-05-23 19:46:00,
2013-05-23 14:51:00,90.3,69.2,29.97,SE,134,5.0,11.0,50,0.00,,OVC044,0.00,VWS V14.01,2013-05-23 19:51:00,
2013-05-23 14:56:00,90.7,68.9,29.97,ESE,110,6.0,8.0,49,0.00,,SCT042,0.00,VWS V14.01,2013-05-23 19:56:00,
2013-05-23 15:01:00,91.0,69.2,29.97,SSE,153,6.0,10.0,49,0.00,,SCT042,0.00,VWS V14.01,2013-05-23 20:01:00,
2013-05-23 15:06:00,90.7,68.9,29.97,ESE,119,1.0,8.0,49,0.00,,SCT042,0.00,VWS V14.01,2013-05-23 20:06:00,
2013-05-23 15:11:00,91.0,68.6,29.97,SE,136,0.0,13.0,48,0.00,,SCT042,0.00,VWS V14.01,2013-05-23 20:11:00,
2013-05-23 15:16:00,90.7,68.9,29.97,ESE,111,9.0,11.0,49,0.00,,SCT042,0.00,VWS V14.01,2013-05-23 20:16:00,
2013-05-23 15:21:00,90.5,69.3,29.96,SSE,149,1.0,16.0,50,0.00,,SCT042,0.00,VWS V14.01,2013-05-23 20:21:00,
2013-05-23 15:26:00,91.0,68.6,29.96,SSE,153,4.0,13.0,48,0.00,,SCT042,0.00,VWS V14.01,2013-05-23 20:26:00,
2013-05-23 15:31:00,91.4,69.0,29.96,SSE,160,1.0,13.0,48,0.00,,SCT042,0.00,VWS V14.01,2013-05-23 20:31:00,
2013-05-23 15:36:00,91.6,69.2,29.96,SE,128,8.0,13.0,48,0.00,,SCT042,0.00,VWS V14.01,2013-05-23 20:36:00,
2013-05-23 15:41:00,91.4,69.0,29.96,East,97,0.0,14.0,48,0.00,,SCT042,0.00,VWS V14.01,2013-05-23 20:41:00,
2013-05-23 15:46:00,92.1,69.6,29.96,SSW,199,8.0,10.0,48,0.00,,SCT042,0.00,VWS V14.01,2013-05-23 20:46:00,
2013-05-23 15:51:00,92.1,69.0,29.95,ESE,111,2.0,14.0,47,0.00,,SCT042,0.00,VWS V14.01,2013-05-23 20:51:00,
2013-05-23 15:56:00,92.3,69.2,29.95,SE,132,10.0,13.0,47,0.00,,BKN060,0.00,VWS V14.01,2013-05-23 20:56:00,
2013-05-23 16:01:00,93.2,68.7,29.95,South,182,5.0,13.0,45,0.00,,BKN060,0.00,VWS V14.01,2013-05-23 21:01:00,
2013-05-23 16:06:00,93.2,69.4,29.95,SE,143,5.0,14.0,46,0.00,,BKN060,0.00,VWS V14.01,2013-05-23 21:06:00,
2013-05-23 16:11:00,92.7,69.5,29.95,East,101,7.0,14.0,47,0.00,,BKN060,0.00,VWS V14.01,2013-05-23 21:11:00,
2013-05-23 16:16:00,92.7,69.5,29.95,ESE,107,3.0,6.0,47,0.00,,BKN060,0.00,VWS V14.01,2013-05-23 21:16:00,
2013-05-23 16:21:00,92.9,69.7,29.93,East,101,3.0,9.0,47,0.00,,BKN060,0.00,VWS V14.01,2013-05-23 21:21:00,
2013-05-23 16:26:00,92.5,69.3,29.93,ESE,121,5.0,10.0,47,0.00,,BKN060,0.00,VWS V14.01,2013-05-23 21:26:00,
2013-05-23 16:30:00,92.1,69.6,29.93,ESE,109,4.0,13.0,48,0.00,,BKN060,0.00,VWS V14.01,2013-05-23 21:30:00,
2013-05-23 16:35:00,91.8,69.9,29.93,ESE,107,5.0,12.0,49,0.00,,BKN060,0.00,VWS V14.01,2013-05-23 21:35:00,
2013-05-23 16:40:00,92.1,69.0,29.93,ENE,65,4.0,14.0,47,0.00,,BKN060,0.00,VWS V14.01,2013-05-23 21:40:00,
2013-05-23 16:45:00,92.1,69.0,29.93,East,92,0.0,7.0,47,0.00,,BKN060,0.00,VWS V14.01,2013-05-23 21:45:00,
2013-05-23 16:50:00,92.7,69.5,29.92,SE,141,5.0,7.0,47,0.00,,BKN060,0.00,VWS V14.01,2013-05-23 21:50:00,
2013-05-23 16:55:00,92.9,69.1,29.92,NE,42,6.0,10.0,46,0.00,,SCT055,0.00,VWS V14.01,2013-05-23 21:55:00,
2013-05-23 17:00:00,92.3,69.2,29.92,ESE,109,0.0,10.0,47,0.00,,SCT055,0.00,VWS V14.01,2013-05-23 22:00:00,
2013-05-23 17:05:00,91.8,69.3,29.92,East,97,0.0,10.0,48,0.00,,SCT055,0.00,VWS V14.01,2013-05-23 22:05:00,
2013-05-23 17:10:00,91.6,69.2,29.92,SSE,149,6.0,10.0,48,0.00,,SCT055,0.00,VWS V14.01,2013-05-23 22:10:00,
2013-05-23 17:15:00,92.1,69.0,29.92,SE,140,0.0,11.0,47,0.00,,SCT055,0.00,VWS V14.01,2013-05-23 22:15:00,
2013-05-23 17:20:00,92.1,69.6,29.91,ESE,107,12.0,12.0,48,0.00,,SCT055,0.00,VWS V14.01,2013-05-23 22:20:00,
2013-05-23 17:25:00,91.8,68.7,29.91,ESE,104,7.0,14.0,47,0.00,,SCT055,0.00,VWS V14.01,2013-05-23 22:25:00,
2013-05-23 17:30:00,91.4,69.0,29.91,SE,136,8.0,14.0,48,0.00,,SCT055,0.00,VWS V14.01,2013-05-23 22:30:00,
2013-05-23 17:35:00,91.2,68.8,29.90,ESE,123,5.0,14.0,48,0.00,,SCT055,0.00,VWS V14.01,2013-05-23 22:35:00,
2013-05-23 17:40:00,91.2,68.8,29.90,ESE,110,4.0,19.0,48,0.00,,SCT055,0.00,VWS V14.01,2013-05-23 22:40:00,
2013-05-23 17:45:00,91.6,69.2,29.90,SE,132,10.0,15.0,48,0.00,,SCT055,0.00,VWS V14.01,2013-05-23 22:45:00,
2013-05-23 17:50:00,91.0,69.2,29.89,South,186,7.0,16.0,49,0.00,,SCT055,0.00,VWS V14.01,2013-05-23 22:50:00,
2013-05-23 17:55:00,91.0,68.6,29.89,SE,138,6.0,14.0,48,0.00,,CLR,0.00,VWS V14.01,2013-05-23 22:55:00,
2013-05-23 18:00:00,91.2,68.8,29.89,ESE,120,5.0,16.0,48,0.00,,CLR,0.00,VWS V14.01,2013-05-23 23:00:00,
2013-05-23 18:05:00,91.2,68.8,29.88,ENE,78,5.0,13.0,48,0.00,,CLR,0.00,VWS V14.01,2013-05-23 23:05:00,
2013-05-23 18:10:00,91.2,69.4,29.88,SSW,192,3.0,13.0,49,0.00,,CLR,0.00,VWS V14.01,2013-05-23 23:10:00,
2013-05-23 18:15:00,91.0,69.2,29.88,SE,132,6.0,13.0,49,0.00,,CLR,0.00,VWS V14.01,2013-05-23 23:15:00,
2013-05-23 18:20:00,91.0,69.2,29.87,SE,133,16.0,17.0,49,0.00,,CLR,0.00,VWS V14.01,2013-05-23 23:20:00,
2013-05-23 18:25:00,90.5,69.3,29.87,South,190,6.0,17.0,50,0.00,,CLR,0.00,VWS V14.01,2013-05-23 23:25:00,
2013-05-23 18:30:00,90.1,69.6,29.87,ESE,119,16.0,17.0,51,0.00,,CLR,0.00,VWS V14.01,2013-05-23 23:30:00,
2013-05-23 18:35:00,89.7,69.2,29.87,SE,134,12.0,19.0,51,0.00,,CLR,0.00,VWS V14.01,2013-05-23 23:35:00,
2013-05-23 18:40:00,89.3,69.4,29.87,SE,130,10.0,19.0,52,0.00,,CLR,0.00,VWS V14.01,2013-05-23 23:40:00,
2013-05-23 18:45:00,88.8,69.5,29.87,ESE,122,6.0,16.0,53,0.00,,CLR,0.00,VWS V14.01,2013-05-23 23:45:00,
2013-05-23 18:50:00,88.8,69.5,29.87,ESE,103,7.0,16.0,53,0.00,,CLR,0.00,VWS V14.01,2013-05-23 23:50:00,
2013-05-23 18:55:00,88.6,69.8,29.87,NE,46,6.0,12.0,54,0.00,,FEW049,0.00,VWS V14.01,2013-05-23 23:55:00,
2013-05-23 19:00:00,88.4,69.7,29.87,SSE,155,3.0,14.0,54,0.00,,FEW049,0.00,VWS V14.01,2013-05-24 00:00:00,
2013-05-23 19:05:00,88.2,69.5,29.87,ESE,115,0.0,10.0,54,0.00,,FEW049,0.00,VWS V14.01,2013-05-24 00:05:00,
2013-05-23 19:10:00,88.2,69.5,29.87,SE,125,0.0,10.0,54,0.00,,FEW049,0.00,VWS V14.01,2013-05-24 00:10:00,
2013-05-23 19:15:00,88.0,69.8,29.87,SE,131,5.0,8.0,55,0.00,,FEW049,0.00,VWS V14.01,2013-05-24 00:15:00,
2013-05-23 19:20:00,87.8,69.6,29.87,ESE,104,9.0,13.0,55,0.00,,FEW049,0.00,VWS V14.01,2013-05-24 00:20:00,
2013-05-23 19:25:00,87.6,70.0,29.87,SSE,148,6.0,12.0,56,0.00,,FEW049,0.00,VWS V14.01,2013-05-24 00:25:00,
2013-05-23 19:30:00,87.4,69.8,29.87,SE,126,7.0,14.0,56,0.00,,FEW049,0.00,VWS V14.01,2013-05-24 00:30:00,
2013-05-23 19:35:00,87.0,69.9,29.87,SSE,164,1.0,12.0,57,0.00,,FEW049,0.00,VWS V14.01,2013-05-24 00:35:00,
2013-05-23 19:40:00,86.7,69.7,29.87,ENE,65,3.0,13.0,57,0.00,,FEW049,0.00,VWS V14.01,2013-05-24 00:40:00,
2013-05-23 19:45:00,86.5,70.0,29.87,ESE,123,2.0,9.0,58,0.00,,FEW049,0.00,VWS V14.01,2013-05-24 00:45:00,
2013-05-23 19:50:00,86.3,70.3,29.87,ESE,123,9.0,16.0,59,0.00,,FEW049,0.00,VWS V14.01,2013-05-24 00:50:00,
2013-05-23 19:55:00,86.1,70.6,29.87,SE,127,2.0,12.0,60,0.00,,CLR,0.00,VWS V14.01,2013-05-24 00:55:00,
2013-05-23 20:00:00,85.9,70.4,29.87,ESE,117,3.0,14.0,60,0.00,,CLR,0.00,VWS V14.01,2013-05-24 01:00:00,
2013-05-23 20:05:00,85.5,70.5,29.89,East,101,4.0,11.0,61,0.00,,CLR,0.00,VWS V14.01,2013-05-24 01:05:00,
2013-05-23 20:10:00,85.3,70.8,29.89,SE,133,11.0,13.0,62,0.00,,CLR,0.00,VWS V14.01,2013-05-24 01:10:00,
2013-05-23 20:15:00,84.9,70.4,29.89,East,87,4.0,12.0,62,0.00,,CLR,0.00,VWS V14.01,2013-05-24 01:15:00,
2013-05-23 20:20:00,84.7,70.7,29.90,ESE,119,0.0,12.0,63,0.00,,CLR,0.00,VWS V14.01,2013-05-24 01:20:00,
2013-05-23 20:25:00,84.5,71.0,29.90,East,97,0.0,7.0,64,0.00,,CLR,0.00,VWS V14.01,2013-05-24 01:25:00,
2013-05-23 20:30:00,84.5,71.0,29.90,SE,140,3.0,8.0,64,0.00,,CLR,0.00,VWS V14.01,2013-05-24 01:30:00,
2013-05-23 20:35:00,84.1,71.1,29.91,East,96,0.0,4.0,65,0.00,,CLR,0.00,VWS V14.01,2013-05-24 01:35:00,
2013-05-23 20:40:00,84.1,71.1,29.91,East,90,5.0,7.0,65,0.00,,CLR,0.00,VWS V14.01,2013-05-24 01:40:00,
2013-05-23 20:45:00,83.8,71.2,29.91,SE,134,8.0,8.0,66,0.00,,CLR,0.00,VWS V14.01,2013-05-24 01:45:00,
2013-05-23 20:50:00,83.6,71.1,29.93,East,96,4.0,8.0,66,0.00,,CLR,0.00,VWS V14.01,2013-05-24 01:50:00,
2013-05-23 20:55:00,83.6,71.5,29.93,ESE,103,0.0,4.0,67,0.00,,FEW042,0.00,VWS V14.01,2013-05-24 01:55:00,
2013-05-23 21:00:00,83.4,71.3,29.93,ESE,119,1.0,6.0,67,0.00,,FEW042,0.00,VWS V14.01,2013-05-24 02:00:00,
2013-05-23 21:05:00,83.2,71.6,29.95,ESE,117,0.0,5.0,68,0.00,,FEW042,0.00,VWS V14.01,2013-05-24 02:05:00,
2013-05-23 21:10:00,83.0,71.4,29.95,ESE,119,2.0,10.0,68,0.00,,FEW042,0.00,VWS V14.01,2013-05-24 02:10:00,
2013-05-23 21:15:00,82.8,71.6,29.95,ESE,121,0.0,6.0,69,0.00,,FEW042,0.00,VWS V14.01,2013-05-24 02:15:00,
2013-05-23 21:20:00,82.6,71.4,29.96,SE,133,0.0,6.0,69,0.00,,FEW042,0.00,VWS V14.01,2013-05-24 02:20:00,
2013-05-23 21:25:00,82.4,71.6,29.96,SE,129,0.0,0.0,70,0.00,,FEW042,0.00,VWS V14.01,2013-05-24 02:25:00,
2013-05-23 21:30:00,82.2,71.4,29.96,SE,126,2.0,7.0,70,0.00,,FEW042,0.00,VWS V14.01,2013-05-24 02:30:00,
2013-05-23 21:35:00,82.0,71.7,29.97,East,98,10.0,10.0,71,0.00,,FEW042,0.00,VWS V14.01,2013-05-24 02:35:00,
2013-05-23 21:40:00,82.0,71.7,29.97,SE,127,0.0,10.0,71,0.00,,FEW042,0.00,VWS V14.01,2013-05-24 02:40:00,
2013-05-23 21:45:00,81.8,71.9,29.97,East,82,0.0,3.0,72,0.00,,FEW042,0.00,VWS V14.01,2013-05-24 02:45:00,
2013-05-23 21:50:00,81.6,71.7,29.99,East,91,0.0,11.0,72,0.00,,FEW042,0.00,VWS V14.01,2013-05-24 02:50:00,
2013-05-23 21:55:00,81.4,71.5,29.99,SE,136,5.0,5.0,72,0.00,,CLR,0.00,VWS V14.01,2013-05-24 02:55:00,
2013-05-23 22:00:00,81.4,71.9,29.99,ESE,109,0.0,11.0,73,0.00,,CLR,0.00,VWS V14.01,2013-05-24 03:00:00,
2013-05-23 22:05:00,81.2,71.7,30.00,East,92,0.0,7.0,73,0.00,,CLR,0.00,VWS V14.01,2013-05-24 03:05:00,
2013-05-23 22:10:00,81.1,71.6,30.00,ESE,122,0.0,7.0,73,0.00,,CLR,0.00,VWS V14.01,2013-05-24 03:10:00,
2013-05-23 22:15:00,81.1,72.0,30.00,SE,128,3.0,5.0,74,0.00,,CLR,0.00,VWS V14.01,2013-05-24 03:15:00,
2013-05-23 22:20:00,80.9,71.8,30.01,ESE,110,0.0,6.0,74,0.00,,CLR,0.00,VWS V14.01,2013-05-24 03:20:00,
2013-05-23 22:25:00,80.7,71.7,30.01,ESE,123,0.0,5.0,74,0.00,,CLR,0.00,VWS V14.01,2013-05-24 03:25:00,
2013-05-23 22:30:00,80.7,72.0,30.01,SE,134,1.0,5.0,75,0.00,,CLR,0.00,VWS V14.01,2013-05-24 03:30:00,
2013-05-23 22:35:00,80.5,71.8,30.01,East,94,0.0,4.0,75,0.00,,CLR,0.00,VWS V14.01,2013-05-24 03:35:00,
2013-05-23 22:40:00,80.3,72.1,30.01,SSE,158,2.0,6.0,76,0.00,,CLR,0.00,VWS V14.01,2013-05-24 03:40:00,
2013-05-23 22:45:00,79.9,71.7,30.01,ESE,122,0.0,9.0,76,0.00,,CLR,0.00,VWS V14.01,2013-05-24 03:45:00,
2013-05-23 22:50:00,79.9,72.1,30.02,SE,140,3.0,9.0,77,0.00,,CLR,0.00,VWS V14.01,2013-05-24 03:50:00,
2013-05-23 22:55:00,79.8,71.9,30.02,ESE,107,0.0,5.0,77,0.00,,CLR,0.00,VWS V14.01,2013-05-24 03:55:00,
2013-05-23 23:00:00,79.8,71.9,30.02,East,98,0.0,5.0,77,0.00,,OVC034,0.00,VWS V14.01,2013-05-24 04:00:00,
2013-05-23 23:01:00,79.8,71.9,30.02,East,98,0.0,5.0,77,0.00,,OVC034,0.00,VWS V14.01,2013-05-24 04:01:00,
2013-05-23 23:06:00,79.6,71.8,30.03,ESE,118,0.0,6.0,77,0.00,,OVC031,0.00,VWS V14.01,2013-05-24 04:06:00,
2013-05-23 23:11:00,79.4,71.6,30.03,SE,125,0.0,6.0,77,0.00,,OVC031,0.00,VWS V14.01,2013-05-24 04:11:00,
2013-05-23 23:16:00,79.4,71.9,30.03,ESE,107,0.0,6.0,78,0.00,,OVC031,0.00,VWS V14.01,2013-05-24 04:16:00,
2013-05-23 23:21:00,79.2,71.8,30.03,SE,125,0.0,6.0,78,0.00,,OVC031,0.00,VWS V14.01,2013-05-24 04:21:00,
2013-05-23 23:26:00,79.0,71.6,30.03,SE,130,0.0,6.0,78,0.00,,OVC031,0.00,VWS V14.01,2013-05-24 04:26:00,
2013-05-23 23:31:00,79.0,71.6,30.03,ESE,111,0.0,7.0,78,0.00,,OVC031,0.00,VWS V14.01,2013-05-24 04:31:00,
2013-05-23 23:36:00,78.8,71.4,30.03,SE,124,2.0,3.0,78,0.00,,OVC031,0.00,VWS V14.01,2013-05-24 04:36:00,
2013-05-23 23:41:00,78.8,71.4,30.03,SE,127,3.0,5.0,78,0.00,,OVC031,0.00,VWS V14.01,2013-05-24 04:41:00,
2013-05-23 23:46:00,78.8,71.4,30.03,ESE,109,0.0,3.0,78,0.00,,OVC031,0.00,VWS V14.01,2013-05-24 04:46:00,
2013-05-23 23:51:00,78.6,71.2,30.03,ESE,114,0.0,6.0,78,0.00,,OVC031,0.00,VWS V14.01,2013-05-24 04:51:00,
2013-05-23 23:56:00,78.6,71.2,30.03,East,94,3.0,10.0,78,0.00,,OVC031,0.00,VWS V14.01,2013-05-24 04:56:00,